Location: Aiyekoto
(8.4333°N, 4.3667°E)
Time: 23:30:39
(UTC+00:00)

Centaur D-1A AC-31 - Pass Details

Date: 02 October 2020
Orbit: 553 x 36388 km, 27.2° (Epoch: 24 October)

Event Time Altitude Azimuth Distance (km) Brightness Sun altitude
Rises 13:18:29 0° 259° (W) 16,365 8.7 60.7°
Reaches altitude 10° 13:35:00 10° 263° (W) 18,990 9.3 56.9°
Maximum altitude 14:48:39 22° 276° (W) 29,650 11.0 39.4°
Drops below altitude 10° 17:18:47 10° 287° (WNW) 40,870 11.8 2.6°
Sets 18:50:27 0° 292° (WNW) 41,318 11.5 -20.1°
